Weather History for CYBW - August, 2014

Change the Weather History Date:

Thursday, August 14, 2014

  Actual Average Record
Temperature  
Mean Temperature 63 °F -  
Max Temperature 71 °F 64 °F 82 °F (1996)
Min Temperature 55 °F 39 °F 39 °F (2006)
Degree Days  
Heating Degree Days 2    
Growing Degree Days 13 (Base 50)    
Moisture  
Dew Point 58 °F    
Average Humidity 81    
Maximum Humidity 94    
Minimum Humidity 60    
Precipitation  
Precipitation 0.00 in - - ()
Sea Level Pressure  
Sea Level Pressure 30.03 in    
Wind  
Wind Speed 6 mph ()    
Max Wind Speed 16 mph    
Max Gust Speed -    
Visibility 8.8 miles    
Events Rain    
Averages and records for this station are not official NWS values.
T = Trace of Precipitation, MM = Missing Value Source: Averaged Metar Reports

Daily Weather History Graph

Daily Weather History Graph

Search for Another Location

Airport or City:

Trip Planner

Search our weather history database for the weather conditions in past years. The results will help you decide how hot, cold, wet, or windy it might be!

Date:

Astronomy

Aug. 14, 2014 Rise Set
Actual Time 6:22 AM MDT 9:00 PM MDT
Civil Twilight 5:45 AM MDT 9:37 PM MDT
Nautical Twilight 4:57 AM MDT 10:24 PM MDT
Astronomical Twilight 4:00 AM MDT 11:21 PM MDT
Moon 10:46 PM MDT (8/14) 11:41 AM MDT (8/14)
Length of Visible Light 15h 52m
Length of Day
14h 37m
Waning Gibbous, 78% of the Moon is Illuminated
Aug 14
Waning Gibbous
Aug 17
Last Quarter
Aug 25
New
Sep 2
First Quarter
Sep 8
Full

Hourly Weather History & Observations

Time (MDT) Temp. Dew Point Humidity Pressure Visibility Wind Dir Wind Speed Gust Speed Precip Events Conditions
12:00 AM 64.4 °F 59.0 °F 83% 29.95 in 9.0 mi West 8.1 mph - N/A Rain Light Rain
12:08 AM 66.2 °F 60.8 °F 83% 29.95 in 9.0 mi NNW 6.9 mph - N/A   Overcast
1:00 AM 62.6 °F 59.0 °F 88% 29.96 in 9.0 mi WNW 5.8 mph - N/A   Overcast
2:00 AM 59.0 °F 57.2 °F 94% 29.95 in 9.0 mi West 5.8 mph - N/A   Clear
3:00 AM 59.0 °F 55.4 °F 88% 29.96 in 9.0 mi West 5.8 mph - N/A   Clear
4:00 AM 57.2 °F 53.6 °F 88% 29.97 in 9.0 mi WNW 8.1 mph - N/A   Partly Cloudy
5:00 AM 55.4 °F 53.6 °F 94% 29.98 in 9.0 mi NW 8.1 mph - N/A   Mostly Cloudy
6:00 AM 55.4 °F 53.6 °F 94% 29.99 in 9.0 mi NW 9.2 mph - N/A   Clear
7:00 AM 55.4 °F 51.8 °F 88% 30.01 in 9.0 mi NW 9.2 mph - N/A   Clear
8:00 AM 57.2 °F 53.6 °F 88% 30.02 in 9.0 mi NNW 4.6 mph - N/A   Mostly Cloudy
9:00 AM 62.6 °F 55.4 °F 77% 30.03 in 9.0 mi NW 6.9 mph - N/A   Clear
10:00 AM 68.0 °F 55.4 °F 64% 30.02 in 9.0 mi NW 10.4 mph - N/A   Scattered Clouds
11:00 AM 69.8 °F 55.4 °F 60% 30.02 in 9.0 mi NW 9.2 mph - N/A   Mostly Cloudy
12:00 PM 71.6 °F 59.0 °F 64% 30.04 in 9.0 mi North 5.8 mph - N/A   Overcast
12:54 PM 71.6 °F 59.0 °F 64% 30.04 in 9.0 mi NE 4.6 mph - N/A   Mostly Cloudy
12:59 PM 71.6 °F 59.0 °F 64% 30.04 in 9.0 mi North 5.8 mph - N/A   Mostly Cloudy
1:00 PM 71.6 °F 57.2 °F 60% 30.04 in 9.0 mi North 6.9 mph - N/A   Mostly Cloudy
2:00 PM 71.6 °F 59.0 °F 64% 30.05 in 9.0 mi North 6.9 mph - N/A   Overcast
3:00 PM 71.6 °F 60.8 °F 69% 30.04 in 9.0 mi NNW 5.8 mph - N/A   Scattered Clouds
4:00 PM 71.6 °F 60.8 °F 69% 30.05 in 9.0 mi NW 3.5 mph - N/A   Scattered Clouds
6:00 PM 71.6 °F 62.6 °F 73% 30.05 in 9.0 mi SW 3.5 mph - N/A   Overcast
6:31 PM 69.8 °F 62.6 °F 78% 30.06 in 9.0 mi WSW 5.8 mph - N/A Rain Light Rain
7:00 PM 68.0 °F 64.4 °F 88% 30.06 in 9.0 mi SSW 4.6 mph - N/A Rain Light Rain
7:27 PM 66.2 °F 62.6 °F 88% 30.06 in 9.0 mi South 6.9 mph - N/A   Overcast
7:33 PM 66.2 °F 62.6 °F 88% 30.06 in 9.0 mi SSE 6.9 mph - N/A Rain Light Rain
7:40 PM 66.2 °F 62.6 °F 88% 30.07 in 5.0 mi Variable 2.3 mph - N/A Rain Rain
7:48 PM 66.2 °F 62.6 °F 88% 30.06 in 6.0 mi Variable 5.8 mph - N/A Rain Light Rain
8:00 PM 64.4 °F 59.0 °F 83% 30.08 in 9.0 mi NE 16.1 mph - N/A Rain Light Rain
8:24 PM 60.8 °F 57.2 °F 88% 30.09 in 9.0 mi NNE 11.5 mph - N/A   Overcast
8:51 PM 60.8 °F 57.2 °F 88% 30.08 in 9.0 mi North 9.2 mph - N/A Rain Light Rain
9:00 PM 60.8 °F 57.2 °F 88% 30.06 in 9.0 mi North 8.1 mph - N/A Rain Light Rain
9:40 PM 60.8 °F 57.2 °F 88% 30.09 in 9.0 mi North 8.1 mph - N/A   Overcast
9:45 PM 60.8 °F 57.2 °F 88% 30.09 in 9.0 mi NNW 5.8 mph - N/A Rain Light Rain
10:00 PM 60.8 °F 57.2 °F 88% 30.08 in 9.0 mi WNW 5.8 mph - N/A   Overcast
11:55 PM 59.0 °F 57.2 °F 94% 30.06 in 9.0 mi NW 9.2 mph - N/A Rain Light Rain